Weather History for Gage, OK

Change the Weather History Date:

Sunday, November 10, 2013

  Actual Average Record
Temperature  
Mean Temperature 50 °F -  
Max Temperature 60 °F 59 °F 81 °F (1949)
Min Temperature 39 °F 30 °F 10 °F (1950)
Degree Days  
Heating Degree Days 16    
Moisture  
Dew Point 46 °F    
Average Humidity 89    
Maximum Humidity 100    
Minimum Humidity 72    
Precipitation  
Precipitation 0.00 in - - ()
Sea Level Pressure  
Sea Level Pressure 30.28 in    
Wind  
Wind Speed 2 mph (SSW)    
Max Wind Speed 12 mph    
Max Gust Speed -    
Visibility 6 miles    
Events      
Averages and records for this station are not official NWS values.
T = Trace of Precipitation, MM = Missing Value Source: NWS Daily Summary

Daily Weather History Graph

Daily Weather History Graph

Search for Another Location

Airport:

Trip Planner

Search our weather history database for the weather conditions in past years. The results will help you decide how hot, cold, wet, or windy it might be!

Date:

Astronomy

Nov. 10, 2013 Rise Set
Actual Time 7:11 AM CST 5:34 PM CST
Civil Twilight 6:44 AM CST 6:01 PM CST
Nautical Twilight 6:13 AM CST 6:32 PM CST
Astronomical Twilight 5:43 AM CST 7:02 PM CST
Moon 1:29 PM CST (11/10) 12:04 AM CST (11/10)
Length of Visible Light 11h 17m
Length of Day
10h 22m
First Quarter, 56% of the Moon is Illuminated
Nov 10
First Quarter
Nov 17
Full
Nov 25
Last Quarter
Dec 2
New
Dec 9
First Quarter

Hourly Weather History & Observations

Time (CST) Temp. Windchill Dew Point Humidity Pressure Visibility Wind Dir Wind Speed Gust Speed Precip Events Conditions
12:53 AM 43.0 °F - 41.0 °F 93% 30.25 in 10.0 mi Calm Calm - N/A   Mostly Cloudy
1:53 AM 39.0 °F - 39.0 °F 100% 30.25 in 9.0 mi Calm Calm - N/A   Clear
2:25 AM 39.2 °F - 37.4 °F 93% 30.26 in 1.5 mi Calm Calm - N/A   Clear
2:36 AM 39.2 °F - 39.2 °F 100% 30.26 in 0.8 mi Calm Calm - N/A   Clear
2:44 AM 41.0 °F - 39.2 °F 93% 30.26 in 1.5 mi Calm Calm - N/A   Clear
2:49 AM 41.0 °F - 39.2 °F 93% 30.26 in 3.0 mi Calm Calm - N/A   Clear
2:53 AM 41.0 °F - 39.9 °F 96% 30.25 in 4.0 mi Calm Calm - N/A   Clear
3:53 AM 39.0 °F - 37.9 °F 96% 30.25 in 6.0 mi Calm Calm - N/A   Clear
4:53 AM 39.0 °F - 37.9 °F 96% 30.27 in 4.0 mi Calm Calm - N/A   Mostly Cloudy
5:53 AM 42.1 °F - 41.0 °F 96% 30.29 in 6.0 mi Calm Calm - N/A   Overcast
6:53 AM 43.0 °F 41.3 °F 42.1 °F 97% 30.31 in 6.0 mi West 3.5 mph - N/A   Overcast
7:01 AM 42.8 °F - 42.8 °F 100% 30.31 in 6.0 mi Calm Calm - N/A   Overcast
7:21 AM 42.8 °F 40.1 °F 42.8 °F 100% 30.31 in 7.0 mi West 4.6 mph - N/A   Overcast
7:53 AM 44.1 °F 42.5 °F 42.1 °F 93% 30.33 in 6.0 mi West 3.5 mph - N/A   Overcast
8:21 AM 44.6 °F - 44.6 °F 100% 30.33 in 2.0 mi Calm Calm - N/A   Overcast
8:36 AM 44.6 °F - 44.6 °F 100% 30.33 in 1.8 mi Calm Calm - N/A   Overcast
8:53 AM 46.0 °F - 45.0 °F 96% 30.34 in 1.5 mi Calm Calm - N/A   Overcast
9:14 AM 48.2 °F - 46.4 °F 93% 30.33 in 2.0 mi Calm Calm - N/A   Overcast
9:25 AM 48.2 °F - 46.4 °F 93% 30.33 in 0.8 mi Calm Calm - N/A   Overcast
9:36 AM 48.2 °F - 46.4 °F 93% 30.34 in 2.0 mi Calm Calm - N/A   Overcast
9:53 AM 50.0 °F - 48.0 °F 93% 30.34 in 3.0 mi Calm Calm - N/A   Overcast
10:27 AM 53.6 °F - 48.2 °F 82% 30.34 in 5.0 mi WSW 3.5 mph - N/A   Overcast
10:53 AM 53.1 °F - 48.9 °F 86% 30.33 in 6.0 mi West 4.6 mph - N/A   Overcast
11:32 AM 55.4 °F - 51.8 °F 88% 30.33 in 9.0 mi SW 4.6 mph - N/A   Overcast
11:44 AM 57.2 °F - 51.8 °F 82% 30.32 in 10.0 mi South 6.9 mph - N/A   Overcast
11:53 AM 57.9 °F - 52.0 °F 81% 30.31 in 10.0 mi South 8.1 mph - N/A   Overcast
12:53 PM 59.0 °F - 51.1 °F 75% 30.28 in 10.0 mi South 9.2 mph - N/A   Overcast
1:53 PM 59.0 °F - 51.1 °F 75% 30.26 in 10.0 mi SSE 9.2 mph - N/A   Overcast
2:53 PM 60.1 °F - 51.1 °F 72% 30.24 in 10.0 mi SSE 10.4 mph - N/A   Overcast
3:53 PM 59.0 °F - 51.1 °F 75% 30.24 in 10.0 mi SSE 11.5 mph - N/A   Overcast
4:53 PM 57.9 °F - 51.1 °F 78% 30.23 in 10.0 mi South 8.1 mph - N/A   Overcast
5:53 PM 57.0 °F - 51.1 °F 81% 30.22 in 10.0 mi South 8.1 mph - N/A   Overcast
6:53 PM 55.9 °F - 51.1 °F 84% 30.24 in 10.0 mi SSW 6.9 mph - N/A   Overcast
7:53 PM 55.9 °F - 51.1 °F 84% 30.24 in 10.0 mi South 5.8 mph - N/A   Overcast
8:53 PM 55.9 °F - 51.1 °F 84% 30.24 in 10.0 mi South 4.6 mph - N/A   Overcast
9:53 PM 55.0 °F - 51.1 °F 86% 30.23 in 10.0 mi Calm Calm - N/A   Overcast
10:53 PM 55.0 °F - 51.1 °F 86% 30.22 in 10.0 mi SSW 5.8 mph - N/A   Overcast
11:53 PM 54.0 °F - 50.0 °F 86% 30.21 in 9.0 mi SW 5.8 mph - N/A   Overcast